Terminal Aerodrome Forecast
Issued by NWS

Home | Current Version | Previous Version | Text Only | Print | Product List | Glossary On
Versions: 1 2 3 4 5 6 7 8 9 10 11 12 13 14 15 16 17 18 19 20 21 22 23 24 25
000
FTUS46 KSEW 260520
TAFSEA
TAF
KSEA 260520Z 2606/2712 22008KT P6SM BKN025 BKN060
     FM260800 21010G20KT P6SM OVC015
     FM262100 21016G23KT P6SM OVC030
     FM270000 21017G24KT P6SM VCSH BKN040
     FM270400 31009KT P6SM -SHRA BKN025 OVC040
     FM270800 21012G20KT P6SM VCSH OVC020=

USA.gov is the U.S. government's official web portal to all federal, state and local government web resources and services.